TIME,DELAY(SENSOR),PRES,T(CTD),SAL,OXYGEN,RAWTEMP,T(OPTODE),TCPHASE,FLUOR,BETA(BETA700),BETA(BETA412),BETA(BETA440),CDOM,C(CSC),ED(ED412.40),ED(ED444.00),ED(ED489.70),ED(ED554.30),LU(LU411.80),LU(LU443.40),LU(LU489.60),LU(LU554.10),COMP,TILTX,TILTX(TILTY),CHECK
1347398906,5807,495.0100097656250000,5.9738998413085940,34.2144012451171900,49.6179199218750000,619.4443969726562000,5.9543108940124510,53.1033515930175800,52,104,86,80,80,15265,2147757586,2147423771,2148004132,2147870884,2147634797,2147073371,2148246912,2147200603,1356,5,13,56011
1347399023,5808,484.2300109863281000,5.8522000312805180,34.1651992797851560,55.8925704956054700,623.1707763671875000,5.8331551551818850,52.2670288085937500,52,103,91,79,82,15263,2147753901,2147424786,2148005696,2147873929,2147634038,2147070390,2148242532,2147198144,1347,4,13,56578
1347399150,5809,473.2900085449219000,5.9485998153686520,34.1482009887695300,61.2341194152832000,620.3131713867188000,5.9260749816894530,51.5197982788085940,53,103,88,81,82,15263,2147757421,2147420205,2148006930,2147872923,2147632978,2147072493,2148249938,2147196452,3099,4,13,55686
1347399277,5810,462.5599975585937500,6.0819001197814940,34.1372985839843750,66.0058670043945300,615.9116210937500000,6.0690441131591800,50.8424186706543000,53,105,89,80,81,15259,2147752320,2147419675,2148005677,2147869019,2147634907,2147071917,2148247707,2147199177,214,4,13,64662
1347399418,5808,451.6799926757812500,6.2590999603271480,34.1333999633789060,73.2134017944336000,609.9843750000000000,6.2612571716308590,49.8646507263183600,52,106,91,80,81,15258,2147753417,2147420736,2148005065,2147874358,2147630939,2147069120,2148244050,2147199917,3503,5,13,28370
1347399569,5806,440.8500061035156000,6.5272998809814450,34.1362991333007800,79.5011520385742200,602.2857055664062000,6.5104060173034670,49.0009193420410160,53,105,89,79,81,15263,2147754084,2147418925,2148004873,2147871652,2147632932,2147074669,2148247899,2147203026,624,4,13,10023
1347399717,5808,429.1600036621094000,6.8810000419616700,34.1206016540527340,88.9716796875000000,591.2138061523438000,6.8677268028259280,47.7535285949707000,52,105,88,79,79,15260,2147752457,2147419392,2148004909,2147871122,2147630637,2147080832,2148246985,2147200941,2687,4,13,48552
1347399832,5810,418.3399963378906000,7.1670999526977540,34.1132011413574200,97.9969635009765600,582.4368896484375000,7.1501708030700680,46.6303215026855500,51,105,89,80,78,15258,2147753499,2147420370,2148006308,2147867355,2147628388,2147080320,2148243437,2147201892,2551,4,13,30009
1347399949,5809,407.5100097656250000,7.3941001892089840,34.1156997680664060,108.2675018310546900,575.2302856445312000,7.3815560340881350,45.4506111145019500,51,103,88,79,78,15260,2147748324,2147420251,2148004196,2147870235,2147627977,2147083821,2148239268,2147200822,1519,4,13,37
1347400076,5812,395.9800109863281000,7.8010997772216800,34.1072998046875000,117.9697036743164000,563.5720214843750000,7.7549037933349610,44.3028907775878900,51,105,87,79,77,15258,2147748178,2147419958,2148003328,2147869046,2147624923,2147083309,2148238409,2147203922,397,3,12,50225
1347400191,5810,385.5599975585937500,8.0784997940063480,34.1118011474609400,129.4953002929687500,554.0573120117188000,8.0587368011474610,43.0669708251953100,50,107,88,80,76,15256,2147749120,2147418624,2148004169,2147869394,2147623744,2147087131,2148233728,2147202450,3313,4,13,2405
1347400308,5811,374.7000122070312500,8.1263999938964840,34.1114006042480500,133.4248046875000000,552.3648071289062000,8.1127023696899410,42.6863288879394500,50,106,89,81,75,15252,2147749961,2147418880,2148001609,2147868105,2147621083,2147088027,2148235684,2147202934,582,4,13,11252
1347400435,5808,363.5000000000000000,8.1789999008178710,34.1012001037597660,138.4640960693359400,550.5493774414062000,8.1705608367919920,42.2156906127929700,50,105,90,81,76,15259,2147747638,2147420123,2148005010,2147872329,2147623296,2147085723,2148234340,2147200301,3493,4,13,37686
1347400576,5810,352.4200134277344000,8.5207004547119140,34.0936012268066400,151.0312957763672000,539.1563110351562000,8.5330600738525390,40.9688301086425800,50,106,89,80,74,15261,2147746450,2147422921,2148003172,2147872393,2147619702,2147095332,2148235108,2147201929,2411,4,13,23218
1347400727,5807,341.4599914550781000,8.8964004516601560,34.0954017639160160,164.5827026367187500,528.3834228515625000,8.8748683929443360,39.7278709411621100,50,106,88,80,75,15260,2147745289,2147421312,2148002322,2147871835,2147619666,2147093010,2148233947,2147200009,1543,4,13,41111
1347400886,5808,329.2600097656250000,9.2607002258300780,34.0994987487793000,180.3858032226562500,516.6821289062500000,9.2451267242431640,38.3889808654785160,50,105,89,81,73,15259,2147742592,2147421174,2148004406,2147871478,2147617453,2147091565,2148231817,2147202541,2709,4,13,30469
1347401002,5806,317.6199951171875000,9.6983003616333000,34.1189002990722660,180.8744049072265600,502.7622985839844000,9.6842727661132810,38.1162910461425800,50,105,90,81,74,15264,2147741851,2147422226,2148003419,2147870436,2147617170,2147096118,2148230116,2147202496,180,4,12,6469
1347401105,5809,306.5199890136719000,9.9017000198364260,34.1265983581543000,188.9960937500000000,496.2892150878906000,9.8880167007446290,37.4614601135253900,50,105,90,80,72,15257,2147741156,2147420388,2148008612,2147871798,2147612854,2147101988,2148222226,2147205805,2539,4,13,13410
1347401198,5811,296.2399902343750000,10.2705001831054690,34.1352996826171900,196.9687042236328000,484.6931152343750000,10.2523002624511720,36.7544898986816400,49,103,90,80,72,15262,2147741549,2147421129,2148008530,2147872329,2147612754,2147105481,2148223067,2147200987,2846,4,13,1933
1347401301,5811,285.1000061035156000,10.3859996795654300,34.1414985656738300,202.7897033691406200,480.7615966796875000,10.3755998611450200,36.3298301696777340,50,103,88,79,72,15261,2147736539,2147421549,2148013330,2147868278,2147608576,2147104832,2148225426,2147205586,548,4,14,30959
1347401416,5805,273.6799926757812500,10.5774002075195310,34.1441001892089840,207.8134002685547000,474.2663879394531000,10.5790901184082030,35.9202194213867200,48,105,89,81,71,15257,2147736813,2147422921,2148019739,2147874102,2147605266,2147105481,2148225115,2147203017,783,4,13,8968
1347401546,5809,264.2799987792969000,10.8934001922607420,34.1321983337402340,208.8636016845703000,464.6968078613281000,10.8784198760986330,35.7004203796386700,49,106,91,80,72,15258,2147734793,2147428370,2148027501,2147871305,2147605403,2147112164,2148226368,2147203328,138,4,13,7339
1347401813,5810,251.8699951171875000,11.2802000045776370,34.1316986083984400,205.7375030517578000,451.7178955078125000,11.2834997177124020,35.6740684509277340,49,105,90,81,71,15260,2147733659,2147432310,2148044379,2147868041,2147608201,2147116955,2148231762,2147205156,538,4,13,53325
1347401972,5809,240.4299926757812500,11.7437000274658200,34.1540985107421900,209.5415039062500000,437.1824951171875000,11.7360200881958000,35.2150001525878900,49,105,87,81,70,15255,2147733732,2147437686,2148065792,2147872758,2147605211,2147124681,2148243108,2147206482,333,4,14,10114
1347402119,5807,228.9600067138672000,12.6413002014160160,34.2120018005371100,210.3117980957031200,408.0932006835937500,12.6383304595947270,34.7093009948730500,48,105,90,78,70,15252,2147731081,2147447798,2148096484,2147872137,2147600813,2147134445,2148256164,2147210816,3354,4,14,58716
1347402234,5808,218.3800048828125000,13.0539999008178710,34.2243995666503900,212.1414031982422000,395.0031127929687500,13.0430603027343750,34.4007110595703100,48,104,88,80,69,15251,2147730130,2147466706,2148139062,2147872868,2147596662,2147150107,2148268315,2147212726,3107,3,13,30632
1347402361,5809,206.7200012207031200,13.6794004440307620,34.2647018432617200,212.6472930908203000,378.0358886718750000,13.5665903091430660,34.1111602783203100,49,105,91,80,68,15250,2147733760,2147487908,2148205522,2147868973,2147596470,2147165412,2148301915,2147211565,3425,4,14,41494
1347402472,5808,198.1000061035156200,14.0714998245239260,34.2994995117187500,214.3520965576172000,361.0714111328125000,14.0889301300048830,33.7574691772460940,49,103,88,80,68,15251,2147736045,2147516141,2148276004,2147872219,2147597065,2147182528,2148333120,2147212845,561,3,14,2411
1347402527,5809,194.1499938964843800,14.3027000427246100,34.3172988891601560,214.3352050781250000,354.9375000000000000,14.2775497436523440,33.6660194396972660,48,103,89,80,70,15252,2147736713,2147531812,2148308086,2147870564,2147595757,2147195474,2148346185,2147219968,30,4,13,41709
1347402582,5810,190.2200012207031200,14.4317998886108400,34.3237991333007800,214.9777984619140600,351.0273132324219000,14.3977298736572270,33.5717201232910160,49,105,88,81,68,15247,2147741330,2147544246,2148338358,2147867611,2147596196,2147203867,2148362029,2147221229,190,4,13,56214
1347402637,5811,186.3800048828125000,14.6799001693725590,34.3456001281738300,215.0233001708984400,341.7880859375000000,14.6815004348754880,33.4317512512207000,49,106,91,81,67,15251,2147743149,2147558994,2148374820,2147869522,2147594788,2147207689,2148377517,2147218578,1013,3,14,51141
1347402692,5805,182.4799957275390600,14.8032999038696290,34.3585014343261700,215.0603027343750000,338.0676879882812500,14.7957000732421880,33.3744316101074200,49,103,88,79,66,15238,2147745069,2147583899,2148412470,2147871140,2147594249,2147222902,2148398272,2147220260,939,3,14,49024
1347402770,5806,177.4400024414062500,15.2642002105712890,34.4151992797851560,214.4358978271484400,325.4685974121094000,15.1821403503417970,33.2228584289550800,48,104,87,80,68,15248,2147747931,2147607323,2148461732,2147871533,2147597933,2147241993,2148422070,2147225737,147,4,13,16040
1347402849,5810,173.2200012207031200,15.3753995895385740,34.4416999816894500,215.7312927246093800,319.6241149902344000,15.3612699508667000,33.0655899047851560,50,106,88,82,67,15246,2147752649,2147636480,2148519963,2147871972,2147599314,2147256301,2148448347,2147228269,276,4,13,2376
1347402916,5811,169.6699981689453000,15.4364995956420900,34.4421997070312500,216.0393981933593800,317.5716857910156000,15.4241600036621100,33.0188789367675800,49,108,89,81,68,15249,2147759424,2147660480,2148577024,2147875693,2147598043,2147274962,2148473965,2147229193,698,3,14,55504
1347402983,5804,166.0700073242187500,15.6560001373291020,34.4590988159179700,215.1697998046875000,310.6614990234375000,15.6358203887939450,32.9658699035644500,49,104,86,81,67,15246,2147768164,2147694957,2148650057,2147872621,2147602587,2147297536,2148507190,2147230985,1417,3,14,35120
1347403052,5807,162.5599975585937500,15.8825998306274410,34.4920997619628900,215.4830017089843800,303.8399963378906000,15.8446598052978520,32.8497009277343750,49,105,88,81,66,15250,2147779309,2147739209,2148738642,2147874157,2147604891,2147319488,2148550500,2147234907,1719,3,14,21214
1347403143,5807,158.5500030517578000,16.2866992950439450,34.5518989562988300,216.0108032226562500,289.5617980957031000,16.2815208435058600,32.6150817871093750,50,103,91,80,67,15243,2147792621,2147784594,2148827574,2147873234,2147607149,2147351936,2148594148,2147239131,2027,3,14,65239
1347403246,5808,154.7400054931640600,16.5582008361816400,34.5947990417480500,217.3975067138672000,281.7532043457031000,16.5202999114990230,32.4281005859375000,50,106,89,80,67,15241,2147810313,2147836726,2148931218,2147876050,2147616256,2147379812,2148640713,2147240868,1879,3,15,46081
1347403380,5811,149.7299957275390600,16.8409996032714840,34.6403007507324200,218.2191925048828000,271.2539062500000000,16.8412208557128900,32.2352218627929700,50,106,87,81,66,15242,2147832521,2147896859,2149027904,2147874715,2147622866,2147419830,2148689133,2147247213,1964,3,14,29284
1347403471,5810,145.3800048828125000,17.2863006591796880,34.7022018432617200,218.7644042968750000,256.8627929687500000,17.2809200286865230,32.0033607482910160,51,106,89,81,66,15240,2147867748,2147982089,2149196361,2147878985,2147638601,2147473764,2148772278,2147251611,2595,3,15,19835
1347403562,5809,141.5599975585937500,17.8215999603271500,34.7560997009277340,218.7884979248047000,240.8003997802734400,17.7715091705322270,31.7779197692871100,55,107,88,80,66,15235,2147899209,2148066450,2149359990,2147878793,2147651904,2147523776,2148854811,2147256813,2988,3,15,63774
1347403679,5808,138.3699951171875000,18.5744991302490230,34.8632011413574200,219.4147949218750000,216.6080017089843800,18.5103092193603500,31.4112701416015620,59,110,88,82,65,15226,2147930669,2148147510,2149513682,2147881709,2147664896,2147578066,2148931913,2147264393,2316,3,15,12221
1347403914,5807,134.2299957275390600,18.8255996704101560,34.9085998535156250,222.3872070312500000,206.5895996093750000,18.8162899017334000,31.1203498840332030,67,115,89,83,64,15221,2147993142,2148250285,2149686619,2147885056,2147689225,2147655442,2149007597,2147268772,1878,3,15,45648
1347404041,5807,129.2200012207031200,19.3756008148193360,34.9859008789062500,222.1082000732422000,189.0124053955078000,19.3532905578613280,30.8970298767089840,74,115,88,82,63,15211,2148096630,2148463168,2150060964,2147893741,2147735542,2147781833,2149192000,2147285238,673,2,15,32784
1347404120,5807,125.3700027465820300,19.6007003784179700,35.0256004333496100,223.8052978515625000,181.2680053710937500,19.5899906158447270,30.7065601348876950,82,119,92,82,63,15206,2148213074,2148710134,2150502171,2147900928,2147791433,2147921380,2149393865,2147299309,3549,2,15,46069
1347404199,5809,121.2900009155273400,19.8304996490478500,35.0558013916015600,224.0569000244140600,173.7312011718750000,19.8204002380371100,30.5934391021728500,86,115,92,83,62,15195,2148382921,2149045668,2151105078,2147911524,2147863579,2148116745,2149670326,2147321371,2746,3,15,44465
1347404280,5808,117.0100021362304700,20.0953006744384770,35.0619010925293000,222.7790985107422000,165.2194976806640600,20.0807304382324220,30.5446300506591800,101,125,92,81,63,15181,2148567186,2149393782,2151667995,2147926409,2147938523,2148283227,2149899794,2147342518,2342,2,15,38551
1347404347,5809,113.7200012207031200,20.1319999694824220,35.0671997070312500,221.0402069091797000,163.7611999511718800,20.1253395080566400,30.6138095855712900,116,127,92,83,63,15163,2148735862,2149696246,2152153270,2147938852,2147998198,2148416566,2150083099,2147356626,1324,3,15,9801
1347404438,5809,109.6200027465820300,20.1828994750976560,35.0716018676757800,219.7360992431640600,162.1887054443359400,20.1734504699707030,30.6602096557617200,116,125,91,82,62,15154,2149045622,2150263488,2153079204,2147961856,2148109440,2148650203,2150439323,2147392667,908,3,15,34509
1347404541,5809,105.7699966430664000,20.3684997558593750,35.0843009948730500,219.0491027832031200,155.7131042480468800,20.3716201782226560,30.6093597412109380,118,127,93,82,63,15151,2149377883,2150784210,2153852827,2147985170,2148221266,2148844525,2150709842,2147417453,921,2,15,523
1347404933,5808,102.5400009155273400,21.1387004852294920,35.1556015014648440,226.2407989501953000,130.4380035400390600,21.1459102630615230,29.9136791229248050,148,130,93,83,62,15111,2150638838,2152704320,2156582582,2148052717,2148594084,2149458523,2151560237,2147498496,3448,2,15,39465
1347405048,5809,98.9000015258789000,21.3666000366210940,35.1866989135742200,230.7113952636718800,123.5868988037109400,21.3560504913330080,29.6071205139160160,155,134,97,85,63,15084,2151861001,2154588790,2159213312,2148133065,2148996790,2150131465,2152459099,2147596498,3317,2,15,51851
1347405103,5808,96.3000030517578100,21.3729000091552730,35.1875000000000000,231.5455932617187500,122.9380035400390600,21.3759593963623050,29.5587501525878900,156,131,94,84,63,15080,2152458313,2155433536,2160244233,2148172214,2149195629,2150410898,2152797056,2147637997,3256,2,15,36073
1347405158,5808,93.4499969482421900,21.5909996032714840,35.1974983215332000,231.7769927978515600,116.7434005737304700,21.5660896301269530,29.4677391052246100,165,132,92,83,62,15072,2153166052,2156407533,2161354304,2148223469,2149425929,2150729664,2153155675,2147677897,2877,2,16,52067
1347405236,5811,89.4300003051757800,21.7479991912841800,35.2131996154785160,235.3872070312500000,111.4197998046875000,21.7295703887939450,29.2284908294677730,150,130,92,83,61,15075,2154580260,2158329161,2163587849,2148326646,2149907136,2151410505,2153925485,2147770816,2650,2,15,18541
1347405291,5809,86.5100021362304700,21.8220996856689450,35.2200012207031250,237.4311981201172000,108.7662963867187500,21.8110904693603500,29.0995903015136720,131,126,93,85,60,15091,2156079798,2160351835,2165963666,2148447350,2150463478,2152203364,2154834112,2147878582,3356,2,15,17287
1347405346,5804,83.9499969482421900,21.8362007141113280,35.2131004333496100,238.2489929199218800,108.0401992797851600,21.8334007263183600,29.0524692535400400,129,126,89,84,62,15098,2158247579,2163309833,2169465115,2148613824,2151275483,2153393554,2156184960,2148028617,2817,2,16,14262
1347405401,5809,81.6399993896484400,21.8941993713378900,35.1920013427734400,236.8899993896484400,106.0129013061523400,21.8957004547119140,29.0894794464111330,120,121,93,84,62,15106,2162576237,2169320210,2176835785,2148968557,2152806765,2155731117,2158938048,2148335597,2507,2,16,64327
1347405456,5809,79.6999969482421900,22.0750007629394530,35.1924018859863300,235.7635040283203000,101.2114028930664000,22.0433006286621100,29.0804195404052730,103,120,92,84,61,15121,2164752585,2171907712,2179492800,2149129170,2153697188,2157007926,2160314916,2148488768,2019,2,15,8578
1347405511,5804,78.1399993896484400,22.1674003601074220,35.1917991638183600,235.4683990478515600,97.6142807006836000,22.1539402008056640,29.0484905242919920,93,122,89,84,61,15120,2167374006,2174946084,2182774518,2149351844,2154723968,2158406180,2161707346,2148655195,1187,2,15,23196
1347405580,5807,76.1999969482421900,22.2984008789062500,35.1866989135742200,236.0973052978515600,93.3536682128906200,22.2850303649902340,28.9651908874511720,87,126,92,85,60,15110,2167778368,2174521435,2181212763,2149342308,2155013842,2158519003,2161452946,2148641764,55,3,16,28154
1347405659,5809,74.1900024414062500,22.4969997406005860,35.1851997375488300,238.2521972656250000,87.3431472778320300,22.4700794219970700,28.7895698547363280,87,127,91,85,61,15116,2168806061,2175167899,2181233426,2149403666,2155564571,2159037924,2161658925,2148678080,3515,2,16,8627
1347405929,5806,72.2500000000000000,22.8341999053955080,35.2062988281250000,241.4389038085937500,75.9696426391601600,22.8205890655517580,28.5013408660888670,80,129,94,85,59,15111,2169224923,2174465947,2179044763,2149335040,2156216896,2159342016,2161273965,2148636635,927,2,15,43192
1347406008,5810,69.9100036621093800,23.0646991729736330,35.2038993835449200,242.8211975097656200,68.8389434814453100,23.0406208038330080,28.3501091003417970,78,130,91,87,57,15103,2172910180,2178456246,2183049618,2149703149,2158181906,2161707922,2163410139,2148896621,1047,2,16,5632
1347406075,5806,67.9499969482421900,23.1091995239257800,35.2055015563964840,243.9450988769531200,67.0210800170898400,23.0967407226562500,28.2775192260742200,80,131,91,85,60,15099,2177871716,2184155328,2189114240,2150215954,2160585270,2164720841,2166304457,2149246354,685,2,15,17036
1347406142,5804,65.8700027465820300,23.1872997283935550,35.2079010009765600,244.7696075439453000,64.3557586669921900,23.1790504455566400,28.2077693939209000,79,130,94,86,60,15101,2180275200,2186711158,2191676973,2150536228,2161979648,2166320676,2167719981,2149439826,932,3,15,61388
1347406220,5807,62.9700012207031250,23.2898006439209000,35.2103996276855500,245.6858978271484400,61.1217002868652340,23.2789707183837900,28.1271095275878900,77,130,92,86,60,15088,2184017609,2190124882,2194498468,2151014217,2164283721,2168725202,2169564187,2149698843,964,3,16,11501
1347406275,5806,60.4000015258789060,23.3645992279052730,35.2118988037109400,246.2212066650390600,58.7212295532226560,23.3531608581542970,28.0738697052001950,75,129,93,87,60,15083,2188254162,2194024246,2197825810,2151542043,2166883200,2171394532,2171596662,2149994011,1052,2,16,8138
1347406330,5806,58.0699996948242200,23.6133995056152340,35.2114982604980500,246.5314025878906200,52.4514694213867200,23.5470600128173830,27.9825992584228500,71,129,94,87,59,15084,2192872886,2198332059,2201634843,2152144054,2169880685,2174504256,2174009334,2150331849,612,3,15,13584
1347406385,5810,56.4500007629394500,23.6961994171142580,35.2132987976074200,246.9720001220703000,48.8282394409179700,23.6592006683349600,27.9185390472412100,70,130,93,85,58,15082,2196722898,2201983734,2204973037,2152731346,2172550390,2177213714,2176095040,2150642688,728,3,15,34348
1347406440,5808,55.3300018310546900,23.7534999847412100,35.2075004577636700,247.6681060791015600,46.1532783508300800,23.7420291900634770,27.8551902770996100,69,126,93,86,59,15083,2200375771,2205501906,2208227437,2153143058,2175164361,2179909174,2178179108,2150898459,3543,2,15,19909
1347406542,5810,53.0800018310546900,24.0797004699707030,35.1924018859863300,248.3854980468750000,36.2588195800781250,24.0486907958984380,27.7021903991699220,70,126,93,86,57,15080,2209878601,2214777179,2216960109,2154624512,2182421622,2187235300,2183792274,2151697709,2650,3,16,45931
1347406609,5807,51.3100013732910160,24.2455997467041000,35.1898002624511700,248.5476074218750000,30.7728900909423830,24.2189292907714840,27.6278190612792970,68,128,93,87,59,15071,2216249417,2220864576,2222713051,2155600082,2187669485,2192444086,2187716736,2152236992,3288,3,16,33505
1347406700,5808,49.4399986267089840,24.3267993927001950,35.1910018920898440,248.9532012939453000,27.4844303131103500,24.3210506439209000,27.5700206756591800,68,128,93,87,58,15071,2224343652,2228408274,2229747931,2157072219,2194043840,2198660854,2192391826,2152959597,303,2,16,17058
1347406791,5810,47.0099983215332000,24.5077991485595700,35.1916999816894500,248.6929016113281200,21.9957504272460940,24.4916191101074220,27.5140399932861330,67,127,94,87,58,15056,2241449974,2245796086,2246964763,2160464292,2206249216,2211184228,2202410541,2154538761,3415,2,16,23367
1347406869,5805,44.1199989318847660,24.6541004180908200,35.1952018737793000,247.8222045898437500,15.5902700424194340,24.6908893585205080,27.4729499816894530,66,127,97,85,58,15069,2255219922,2259363904,2260312704,2164220681,2218005568,2222671625,2211283547,2156150857,2898,2,16,10380
1347406924,5809,41.9300003051757800,25.2754993438720700,35.2069015502929700,245.8426055908203000,2.1556820869445800,25.1095600128173830,27.3937797546386720,65,129,98,87,56,15058,2261635821,2265380470,2265745261,2166075904,2224581888,2228592987,2215418203,2156957129,2837,2,16,9485
1347407362,5810,40.8100013732910160,26.0403003692626950,35.2636985778808600,237.4568023681640600,-27.6698207855224600,26.0429096221923830,27.3978404998779300,62,130,95,85,55,15069,2244235520,2246194057,2245282989,2163189147,2218083894,2219179245,2205740818,2155533942,2083,2,15,5228
1347407500,5803,37.8100013732910160,26.1357994079589840,35.2715988159179700,235.9884033203125000,-30.4404697418212900,26.1298999786376950,27.4297504425048830,60,132,94,85,56,15064,2247026011,2248737627,2247787849,2165900205,2226075364,2225238336,2209250432,2156480530,1451,2,16,41121
1347407555,5807,35.4500007629394500,26.1546993255615230,35.2728996276855500,235.5086975097656200,-31.1802406311035160,26.1531295776367200,27.4421691894531250,60,125,93,86,57,15065,2253271341,2255028827,2254172205,2168814893,2236507410,2234145289,2215173147,2157640905,1018,2,16,21807
1347407610,5807,33.0499992370605500,26.1602001190185550,35.2743988037109400,235.2798004150390600,-31.4382095336914060,26.1612396240234380,27.4492893218994140,57,129,93,86,56,15064,2259811620,2261718765,2261046848,2172558171,2247348434,2243263890,2221241206,2159071936,703,2,15,32174
1347407665,5806,30.6900005340576170,26.1616992950439450,35.2742996215820300,235.2062072753906200,-31.5307502746582030,26.1641407012939450,27.4514503479003900,57,127,93,86,55,15055,2266391222,2268480420,2268061787,2177229705,2259019044,2253072640,2227742400,2160706752,490,2,15,33621